Location: Mentone
(34.5413°N, 85.5351°W)
Time: 00:33:49
(UTC-05:00)

Tiros 1 despin weight - All Passes

Search period start: 25 October 2014 00:00
Search period end: 03 November 2014 23:00
Orbit: 601 x 652 km, 48.2° (Epoch: 23 October)

Date Brightness Start Highest point End Pass type
(mag) Time Alt. Az. Time Alt. Az. Time Alt. Az.
25 Oct - 06:53:32 10° SSW 06:58:01 46° SE 07:02:28 10° ENE daylight
25 Oct - 08:35:36 10° W 08:39:52 34° NNW 08:44:05 10° NE daylight
25 Oct - 10:19:54 10° NW 10:22:39 15° N 10:25:24 10° NNE daylight
25 Oct - 12:02:48 10° NNW 12:05:50 17° NNE 12:08:50 10° NE daylight
25 Oct - 13:44:01 10° NW 13:48:24 48° NNE 13:52:43 10° ESE daylight
25 Oct - 15:26:11 10° WNW 15:29:56 27° SW 15:33:39 10° S daylight
26 Oct - 05:33:10 10° SSE 05:35:51 15° SE 05:38:31 10° E visible
26 Oct - 07:12:26 10° SW 07:17:08 84° NW 07:21:47 10° NE daylight
26 Oct - 08:55:43 10° WNW 08:59:23 22° NNW 09:03:01 10° NNE daylight
26 Oct - 10:39:56 10° NNW 10:42:27 14° N 10:44:58 10° NE daylight
26 Oct - 12:21:48 10° NNW 12:25:29 24° NNE 12:29:08 10° ENE daylight
26 Oct - 14:03:07 10° NW 14:07:39 84° SW 14:12:06 10° SE daylight
26 Oct - 15:47:20 10° WSW 15:48:46 11° SW 15:50:12 10° SSW daylight
27 Oct - 05:50:31 10° SSW 05:54:44 33° SE 05:58:55 10° ENE visible
27 Oct - 07:31:55 10° WSW 07:36:24 44° NNW 07:40:50 10° NE daylight
27 Oct - 09:16:02 10° NW 09:19:03 17° NNW 09:22:03 10° NNE daylight
27 Oct - 10:59:25 10° NNW 11:02:14 16° N 11:05:02 10° NE daylight
27 Oct - 12:40:44 10° NW 12:44:59 38° NNE 12:49:09 10° E daylight
27 Oct - 14:22:32 10° WNW 14:26:42 37° SW 14:30:48 10° SSE daylight
28 Oct - 04:31:59 10° SE 04:32:38 10° SE 04:33:17 10° ESE visible
28 Oct - 06:09:04 10° SW 06:13:45 73° SE 06:18:25 10° ENE visible
28 Oct - 07:51:52 10° W 07:55:50 27° NNW 07:59:46 10° NE daylight
28 Oct - 09:36:13 10° NW 09:38:49 15° N 09:41:24 10° NNE daylight
28 Oct - 11:18:29 10° NNW 11:21:56 20° NNE 11:25:20 10° ENE daylight
28 Oct - 12:59:44 10° NW 13:04:17 72° NE 13:08:44 10° ESE daylight
28 Oct - 14:42:42 10° W 14:45:34 17° SW 14:48:25 10° S daylight
29 Oct - 04:47:40 10° S 04:51:26 24° SE 04:55:12 10° ENE visible
29 Oct - 06:28:18 10° WSW 06:32:56 57° NNW 06:37:32 10° NE visible
29 Oct - 08:12:06 10° WNW 08:15:26 19° NNW 08:18:44 10° NNE daylight
29 Oct - 09:55:54 10° NNW 09:58:35 15° N 10:01:15 10° NE daylight
29 Oct - 11:37:25 10° NW 11:41:29 30° NNE 11:45:28 10° E daylight
29 Oct - 13:18:58 10° WNW 13:23:23 53° SW 13:27:43 10° SE daylight
30 Oct - 05:05:48 10° SSW 05:10:22 52° SE 05:14:56 10° ENE visible
30 Oct - 06:48:03 10° W 06:52:17 32° NNW 06:56:29 10° NE daylight
30 Oct - 08:32:22 10° NW 08:35:08 15° N 08:37:53 10° NNE daylight
30 Oct - 10:15:06 10° NNW 10:18:19 18° NNE 10:21:28 10° ENE daylight
30 Oct - 11:56:21 10° NW 12:00:50 53° NNE 12:05:14 10° ESE daylight
30 Oct - 13:38:41 10° WNW 13:42:18 24° SW 13:45:53 10° S daylight
31 Oct - 03:45:04 10° S 03:48:08 17° SE 03:51:11 10° E visible
31 Oct - 05:24:44 10° WSW 05:29:28 76° NW 05:34:09 10° NE visible
31 Oct - 07:08:09 10° WNW 07:11:47 22° NNW 07:15:23 10° NNE daylight
31 Oct - 08:52:16 10° NNW 08:54:54 15° N 08:57:30 10° NE daylight
31 Oct - 10:34:04 10° NW 10:37:54 25° NNE 10:41:41 10° E daylight
31 Oct - 12:15:27 10° NW 12:20:00 76° SW 12:24:28 10° SE daylight
01 Nov - 04:02:38 10° SSW 04:06:59 37° SE 04:11:19 10° ENE visible
01 Nov - 05:44:15 10° W 05:48:43 40° NNW 05:53:08 10° NE visible
01 Nov - 07:28:25 10° NW 07:31:26 17° N 07:34:25 10° NNE daylight
01 Nov - 09:11:38 10° NNW 09:14:37 17° N 09:17:35 10° NE daylight
01 Nov - 10:52:57 10° NW 10:57:19 41° NNE 11:01:36 10° E daylight
01 Nov - 12:34:53 10° WNW 12:38:59 34° SW 12:43:01 10° SSE daylight
02 Nov - 01:43:05 10° SSE 01:44:49 12° SE 01:46:33 10° ESE night (unlit)
02 Nov - 03:21:15 10° SW 03:25:59 80° SE 03:30:41 10° NE visible
02 Nov - 05:04:12 10° WNW 05:08:08 25° NNW 05:12:02 10° NE visible
02 Nov - 06:48:29 10° NW 06:51:09 15° N 06:53:48 10° NNE daylight
02 Nov - 08:30:39 10° NNW 08:34:15 22° NNE 08:37:49 10° ENE daylight
02 Nov - 10:11:57 10° NW 10:16:33 80° NE 10:21:04 10° SE daylight
02 Nov - 11:55:12 10° W 11:57:47 15° SW 12:00:21 10° SSW daylight
03 Nov - 01:59:38 10° S 02:03:35 27° SE 02:07:32 10° ENE visible
03 Nov - 03:40:31 10° WSW 03:45:08 52° NNW 03:49:44 10° NE visible
03 Nov - 05:24:25 10° WNW 05:27:42 18° NNW 05:30:58 10° NNE visible
03 Nov - 07:08:04 10° NNW 07:10:53 16° N 07:13:40 10° NE daylight
03 Nov - 08:49:32 10° NW 08:53:44 33° NNE 08:57:51 10° E daylight
03 Nov - 10:31:11 10° WNW 10:35:35 48° SW 10:39:55 10° SSE daylight
